Location: Azul
(36.7830°S, 59.8500°W)
Time: 22:22:15
(UTC-03:00)

ISS - Pass Details

Date: 21 January 2021
Orbit: 418 x 419 km, 51.6° (Epoch: 17 January)

Event Time Altitude Azimuth Distance (km) Brightness Sun altitude
Exits shadow 05:16:59 - 355° (N) 2,210 -0.5 -9.0°
Reaches altitude 10° 05:19:23 10° 18° (NNE) 1,503 -1.1 -8.6°
Maximum altitude 05:21:15 14° 52° (NE) 1,279 -1.0 -8.2°
Drops below altitude 10° 05:23:08 10° 86° (E) 1,515 0.0 -7.9°
Sets 05:25:59 0° 112° (ESE) 2,389 2.2 -7.4°
